#timestamp,LO_Frequency,Hit,StdDev 
1571486415.8,286047000.0,N
1571486435.7,286046998.6,N
1571486455.5,286046996.6,N
1571486475.3,286046998.3,N
1571486495.2,286046999.0,N
1571486515.9,286046996.6,N
1571486535.7,286046997.0,N
1571486555.6,286046999.1,N
1571486575.4,286046998.2,N
1571486595.2,286046998.9,N
1571486615.1,286046998.5,N
1571486616.0,286046998.5,N
1571486635.8,286046999.8,N
1571486655.6,286047001.0,N
1571486675.5,286047000.9,N
1571486695.3,286046998.2,N
1571486715.1,286046999.6,N
1571486735.9,286046999.2,N
1571486755.7,286046999.2,N
1571486775.5,286046998.2,N
1571486795.4,286047000.9,N
1571486815.2,286046998.1,N
1571486835.0,286046999.1,N
1571486835.9,286046999.1,N
1571486855.8,286046998.6,N
1571486875.6,286046999.6,N
1571486895.4,286046996.6,N
1571486915.3,286046997.9,N
1571486935.1,286046997.9,N
1571486955.8,286046997.8,N
1571486975.7,286046999.2,N
1571486995.5,286046996.9,N
1571487015.3,286046997.2,N
1571487035.2,286046996.5,Y
1571487055.0,286046999.1,P
1571487055.9,286046999.1,P
1571487075.7,286046999.3,P
1571487095.6,286046998.9,Y
1571487115.4,286046999.0,P
1571487135.2,286047001.2,P
1571487155.1,286046998.4,N
1571487156.0,286046998.4,N
1571487175.8,286046996.5,Y
1571487195.7,286046998.6,P
1571487215.5,286047000.5,N
1571487235.3,286046999.8,N
1571487255.2,286047000.3,N
1571487275.9,286046999.9,N
1571487295.7,286046998.3,N
1571487315.6,286046998.6,N
1571487335.4,286046999.0,N
1571487355.2,286047000.5,N
1571487375.1,286047001.8,N
1571487376.0,286047001.8,N
1571487395.8,286047004.3,Y
1571487415.6,286047002.2,P
1571487435.5,286047002.1,N
1571487455.3,286047001.9,N
1571487475.1,286047001.2,N
1571487495.9,286047002.7,Y
1571487515.7,286046998.4,P
1571487535.5,286046998.9,N
1571487555.4,286046998.7,N
1571487575.2,286046999.5,N
1571487595.0,286046997.2,N
1571487595.9,286046997.2,N
1571487615.8,286046997.0,N
1571487635.6,286046996.5,N
1571487655.4,286046996.6,N
1571487675.3,286046998.4,N
1571487695.1,286046998.7,N
1571487696.0,286046998.7,N
1571487715.8,286046999.4,N
1571487735.7,286046998.2,N
1571487755.5,286046998.1,N
1571487775.3,286047000.1,N
1571487795.2,286047002.5,N
1571487815.9,286046999.7,N
1571487835.7,286046999.7,N
1571487855.6,286047002.5,N
1571487875.4,286047000.5,N
1571487895.2,286046998.9,N
1571487915.1,286047000.7,N
1571487916.0,286047000.7,N
1571487935.8,286046998.4,N
1571487955.6,286046998.2,N
1571487975.5,286047000.8,N
1571487995.3,286046998.7,N
1571488015.1,286047001.6,N
1571488035.9,286047001.3,N
1571488055.7,286047000.7,N
1571488075.5,286046998.5,N
1571488095.4,286046998.4,N
1571488115.2,286047000.8,N
1571488135.0,286046998.9,N
1571488135.9,286046998.9,N
1571488155.8,286046999.1,N
1571488175.6,286046996.8,N
1571488195.4,286046996.7,N
1571488215.3,286046997.4,N
1571488235.1,286046996.5,N
1571488255.8,286046999.6,N
1571488275.7,286046999.4,N
1571488295.5,286046999.0,N
1571488315.3,286046998.3,N
1571488335.2,286046998.1,N
1571488355.9,286046998.1,N
1571488375.7,286046997.0,N
1571488395.6,286046999.0,N
1571488415.4,286046999.0,N
1571488435.2,286046999.6,N
1571488455.1,286046997.1,N
1571488456.0,286046997.1,N
1571488475.8,286046998.5,N
1571488495.6,286046999.3,N
1571488515.5,286046998.1,N
1571488535.3,286046999.3,N
1571488555.1,286046999.3,N
1571488575.9,286046997.2,N
1571488595.7,286046997.6,N
1571488615.5,286046999.6,N
1571488635.4,286046997.3,N
1571488655.2,286046999.4,N
1571488675.0,286046999.0,N
1571488675.9,286046999.0,N
1571488695.8,286046996.7,Y
1571488715.6,286046999.2,P
1571488735.4,286046998.5,P
1571488755.3,286046998.3,P
1571488775.1,286047001.0,N
1571488795.8,286047000.3,N
1571488815.7,286047002.0,N
1571488835.5,286047002.8,N
1571488855.3,286047002.8,N
1571488875.2,286047000.7,N
1571488895.0,286046998.4,N
1571488895.9,286046998.4,N
1571488915.8,286046998.8,N
1571488935.6,286046997.1,N
1571488955.4,286046996.9,N
1571488975.3,286046999.0,N
1571488995.1,286046999.3,N
1571488996.0,286046999.3,N
1571489015.8,286046999.0,N
1571489035.7,286047000.9,N
1571489055.5,286046999.0,N
1571489075.3,286046998.2,N
1571489095.2,286046999.3,N
1571489115.9,286046999.4,N
1571489135.7,286046999.0,N
1571489155.6,286046997.0,N
1571489175.4,286046998.7,N
1571489195.2,286046996.8,N
1571489215.1,286046997.1,N
1571489216.0,286046997.1,N
1571489235.8,286046996.6,N
1571489255.6,286046999.4,N
1571489275.5,286046996.7,N
1571489295.3,286047000.8,N
1571489315.1,286046999.0,N
1571489335.9,286046997.0,N
1571489355.7,286046997.5,N
1571489375.5,286046994.9,Y
1571489395.4,286046996.6,P
1571489415.2,286046997.1,N
1571489435.0,286046996.5,P
1571489435.9,286046996.5,Y
1571489455.8,286047000.4,P
1571489475.6,286047002.6,N
1571489495.4,286047001.8,N
1571489515.3,286047002.7,N
1571489535.1,286047001.9,N
1571489555.8,286047002.8,N
1571489575.7,286047000.2,N
1571489595.5,286047002.1,N
1571489615.3,286047004.4,N
1571489635.2,286047003.1,N
1571489655.0,286047002.9,N
1571489655.9,286047002.9,N
1571489675.7,286047004.0,N
1571489695.6,286047003.5,N
1571489715.4,286047005.7,Y
1571489735.2,286047003.7,P
1571489755.1,286047003.4,P
1571489756.0,286047003.4,P
1571489775.8,286047003.9,Y
1571489795.7,286046998.6,P
1571489815.5,286046999.2,N
1571489835.3,286046999.3,N
1571489855.2,286046998.8,N
1571489875.9,286046998.9,N
1571489895.7,286046996.6,N
1571489915.6,286046997.2,N
1571489935.4,286046996.1,N
1571489955.2,286046996.1,N
1571489975.1,286046995.5,N
1571489976.0,286046995.5,N
1571489995.8,286046999.6,N
